Fort Lewis, WA
on Friday, November 9, 2012

Friday
Previous Day Next Day
Daily Summary
 ActualAverage (KOLM)Record (KOLM)
Temperature
Mean Temperature °F 45°F  
Max Temperature 47°F 52°F 62°F (1956)
Min Temperature 26°F 38°F 23°F (1978)
Degree Days
Heating Degree Days 28 20  
Month to date heating degree days 174  
Since 1 July heating degree days 968  
Cooling Degree Days 0 0  
Month to date cooling degree days 0  
Year to date cooling degree days 106  
Moisture
Dew Point 29°F   
Average Humidity 84    
Maximum Humidity 100    
Minimum Humidity 55    
Precipitation
Precipitation 0.00 in 0.27 in 1.52 in (1961)
Month to date precipitation 2.29  
Year to date precipitation 36.20  
Wind
Wind Speed 3 mph   
Max Wind Speed 8 mph   
Max Gust Speed mph   
Visibility 10 miles   
Events     

Key: T is trace of precipitation, MM is missing value
Source: NWS Daily Summary
Time(PST)TemperatureDew PointHumidity Pressure Visibility Wind DirectionWind SpeedGust SpeedPrecipitationEvents Conditions
12:58 AM 30.7°F 29.8°F 96% 29.87 in 10.0 miles SE 2.3 mph - N/A   Clear
1:58 AM 28.9°F 27.9°F 96% 29.87 in 10.0 miles SE 3.5 mph - N/A   Clear
2:58 AM 30.2°F 29.3°F 96% 29.87 in 10.0 miles ESE 2.3 mph - N/A   Clear
3:58 AM 28.0°F 26.8°F 95% 29.88 in 10.0 miles SE 2.3 mph - N/A   Clear
4:58 AM 27.9°F 26.6°F 95% 29.88 in 10.0 miles ESE 2.3 mph - N/A   Clear
5:58 AM 27.7°F 26.4°F 95% 29.89 in 10.0 miles SE 1.2 mph - N/A   Clear
6:58 AM 27.9°F 26.8°F 96% 29.90 in 10.0 miles ESE 2.3 mph - N/A   Clear
7:36 AM 26.6°F 26.6°F 100% 29.89 in 10.0 miles Calm Calm - N/A   Partly Cloudy
7:58 AM 28.6°F 27.5°F 96% 29.91 in 10.0 miles East 1.2 mph - N/A   Partly Cloudy
8:58 AM 32.2°F 30.4°F 93% 29.91 in 10.0 miles Calm Calm - N/A   Clear
9:58 AM 38.7°F 34.0°F 83% 29.91 in 10.0 miles WSW 2.3 mph - N/A   Clear
10:58 AM 44.8°F 34.7°F 68% 29.92 in 10.0 miles Variable 3.5 mph - N/A   Clear
11:58 AM 46.6°F 33.3°F 60% 29.91 in 10.0 miles NNE 4.6 mph - N/A   Scattered Clouds
12:58 PM 45.5°F 32.0°F 59% 29.90 in 10.0 miles NE 5.8 mph - N/A   Overcast
1:58 PM 45.5°F 31.5°F 58% 29.90 in 10.0 miles NW 2.3 mph - N/A   Mostly Cloudy
2:58 PM 47.7°F 32.2°F 55% 29.89 in 10.0 miles North 8.1 mph - N/A   Mostly Cloudy
3:58 PM 44.1°F 30.2°F 58% 29.89 in 10.0 miles Variable 4.6 mph - N/A   Clear
4:58 PM 41.9°F 29.5°F 61% 29.90 in 10.0 miles North 5.8 mph - N/A   Clear
5:58 PM 37.0°F 31.3°F 80% 29.92 in 10.0 miles ENE 1.2 mph - N/A   Clear
6:58 PM 35.2°F 30.9°F 84% 29.92 in 10.0 miles Calm Calm - N/A   Clear
7:58 PM 31.8°F 29.8°F 92% 29.94 in 10.0 miles SE 4.6 mph - N/A   Clear
8:58 PM 29.7°F 27.9°F 93% 29.94 in 10.0 miles SE 3.5 mph - N/A   Clear
9:58 PM 28.8°F 27.0°F 93% 29.95 in 10.0 miles SE 5.8 mph - N/A   Clear
10:58 PM 27.9°F 26.4°F 94% 29.96 in 10.0 miles ESE 2.3 mph - N/A   Clear
11:58 PM 26.8°F 25.2°F 94% 29.97 in 10.0 miles SE 4.6 mph - N/A   Clear
Moon Phase
Nov. 09 Nov. 13 Nov. 20 Nov. 28 Dec. 06
Sunrise:07:05 AM (PST) Moon Rise:01:53 AM (PST)11/9
Sunset:04:41 PM (PST) Moon Set:02:13 PM (PST)11/9

Copyright © 2014 The Weather Underground, Inc.